Regional Weather Roundup
Issued by NWS

Current Version | Previous Version | Text Only | Print | Product List | Glossary On
Versions: 1 2 3 4 5 6 7 8 9 10 11 12 13 14 15 16 17 18 19 20 21 22 23 24 25 26 27 28 29 30 31 32 33 34 35 36 37 38 39 40 41 42 43 44 45 46 47 48 49 50
000
ASUS43 KMKX 201420
RWRWI

WISCONSIN REGIONAL WEATHER ROUNDUP
NATIONAL WEATHER SERVICE MILWAUKEE/SULLIVAN WI
900 AM CDT FRI APR 20 2018

NOTE: "FAIR" INDICATES FEW OR NO CLOUDS BELOW 12,000 FEET WITH NO
SIGNIFICANT WEATHER AND/OR OBSTRUCTIONS TO VISIBILITY.

WIZ001-002-006>008-014>016-023>028-201500-
NORTHWEST WISCONSIN

CITY           SKY/WX    TMP DP  RH WIND       PRES   REMARKS
SUPERIOR ARPT  FAIR      42  27  54 SW8       30.47S
ASHLAND        FAIR      42  24  49 SW9       30.46R
HAYWARD        FAIR      37  26  64 S5        30.48R WCI  33
SIREN          FAIR      41  26  54 CALM      30.49S
CUMBERLAND     FAIR      30  19  64 CALM      30.49S
RICE LAKE      FAIR      32  25  73 CALM      30.51S
CHETEK         FAIR      35  25  66 CALM      30.50S
LADYSMITH      FAIR      37  24  60 CALM      30.51R
EAU CLAIRE     FAIR      37  27  67 CALM      30.51R
MENOMONIE      FAIR      37  29  72 CALM      30.51F
NEW RICHMOND   FAIR      37  26  65 CALM      30.51R
OSCEOLA        FAIR      35  26  71 CALM      30.54R
$$

WIZ003>005-009-010-017-018-201500-
NORTH CENTRAL WISCONSIN

CITY           SKY/WX    TMP DP  RH WIND       PRES   REMARKS
MANITOWISH WTR FAIR      38  18  44 CALM      30.45S
ARBOR VITAE    FAIR      39  19  44 CALM      30.45S
WOODRUFF       FAIR      39  19  44 CALM      30.45S
RHINELANDER    FAIR      37  20  50 W6        30.46S WCI  32
EAGLE RIVER    FAIR      38  15  38 CALM      30.44F
LAND O LAKES   FAIR      44  14  29 CALM      30.46S
PHILLIPS       FAIR      38  21  51 CALM      30.47R
TOMAHAWK       FAIR      37  17  44 CALM      30.48R
MEDFORD        FAIR      37  19  49 W3        30.48R
MERRILL          N/A     35  19  53 CALM      30.49S
$$

WIZ029-030-035-036-043>047-201500-
CENTRAL WISCONSIN

CITY           SKY/WX    TMP DP  RH WIND       PRES   REMARKS
WAUSAU         FAIR      37  20  50 NW3       30.47R
MOSINEE        SUNNY     37  21  52 N3        30.50R
MARSHFIELD     FAIR      35  20  54 NW7       30.48R WCI  29
STEVENS POINT  FAIR      34  20  56 CALM      30.50R
WAUPACA        FAIR      42  20  40 CALM      30.50S
WAUTOMA        FAIR      39  19  44 CALM      30.50R
WISC RAPIDS    FAIR      36  20  52 CALM      30.51R
CAMP DOUGLAS   SUNNY     36  25  64 W3        30.51R
$$

WIZ011>013-019>022-031-037>040-048>050-201500-
NORTHEAST WISCONSIN

CITY           SKY/WX    TMP DP  RH WIND       PRES   REMARKS
ANTIGO         FAIR      33  21  61 CALM      30.48R
SHAWANO        FAIR      43  18  36 CALM      30.49S
OCONTO         FAIR      36  14  41 CALM      30.49R
STURGEON BAY   FAIR      42  12  29 W5        30.49R
GREEN BAY      FAIR      36  23  59 CALM      30.50R
MANITOWOC      FAIR      38  24  57 CALM      30.51R
APPLETON       MOSUNNY   36  21  55 VRB3      30.48R
CLINTONVILLE   FAIR      38  17  42 CALM      30.49S
OSHKOSH        FAIR      37  22  54 W3        30.50R
$$

WIZ032>034-041-042-053>061-201500-
SOUTHWEST WISCONSIN

CITY           SKY/WX    TMP DP  RH WIND       PRES   REMARKS
LA CROSSE      FAIR      35  28  75 VRB3      30.53R
SPARTA         FAIR      32  25  76 CALM      30.53S
VIROQUA        FAIR      36  25  64 CALM      30.51S
BOSCOBEL       FAIR      36  29  75 CALM      30.54S
PRAIRIE DU CHI FAIR      33  24  70 CALM      30.54S
PLATTEVILLE    FAIR      41  31  68 N3        30.52S
$$

WIZ056-057-062-063-064-067-068-201500-
SOUTH CENTRAL WISCONSIN

CITY           SKY/WX    TMP DP  RH WIND       PRES   REMARKS
REEDSBURG      FAIR      35  24  65 CALM      30.51S
BARABOO/DELLS  FAIR      32  23  69 S3        30.51S
LONE ROCK      FAIR      34  30  85 W3        30.54R
MINERAL POINT  FAIR      43  32  65 NW3       30.52R
MADISON        FAIR      40  28  62 CALM      30.51R
MIDDLETON      FAIR      42  28  57 W5        30.52R
WATERTOWN      FAIR      35  25  67 CALM      30.51R
MONROE         FAIR      43  25  49 W3        30.51R
JANESVILLE     SUNNY     39  30  70 CALM      30.51R
$$

WIZ051-052-058>065-066-070>072-201500-
SOUTHEAST WISCONSIN

CITY           SKY/WX    TMP DP  RH WIND       PRES   REMARKS
MILWAUKEE      FAIR      44  25  47 CALM      30.50S
WAUKESHA       SUNNY     27  21  80 CALM      30.51R
MILWAUKEE/TIMM SUNNY     39  21  48 CALM      30.51R
RACINE         FAIR      46  25  43 CALM      30.52R
BURLINGTON     FAIR      39  27  61 CALM      30.50S
KENOSHA        FAIR      46  26  45 CALM      30.50S
FOND DU LAC    FLURRIES  35  21  56 CALM      30.50R
SHEBOYGAN      FAIR      41  26  55 CALM      30.50R
WEST BEND      FAIR      39  23  52 CALM      30.50R
JUNEAU         FAIR      33  22  65 CALM      30.51R
$$

LSZ147-162-201500-
LAKE SUPERIOR

STATION/POSITION TIME  TEMP    WIND        PRES    WAVE
                       AIR SEA DIR/SP/G            HT/PER
                 (UTC) (F)     (DEG/KT/KT) (MB)    (FT/S)
DEVILS ISLAND    1400   39     230/  9/ 10 1031.9R
SAXON HARBOR     1330   45     190/  6/  9 1030.5S
$$

LMZ867-665-643>646-201500-
LAKE MICHIGAN

STATION/POSITION TIME  TEMP    WIND        PRES    WAVE
                       AIR SEA DIR/SP/G            HT/PER
                 (UTC) (F)     (DEG/KT/KT) (MB)    (FT/S)
NORTHPORT PIER   1340   38                 1031.8R
KEWAUNEE LAKESHO 1354   44     270/  3/  5 1031.6R
SHEBOYGAN LAKESH 1400   43        CALM     1033.2R
PORT WASHINGTON  1330   45     320/  1/  3 1033.5R
MILWAUKEE LAKESH 1400   43     110/  2/  2   N/A
KENOSHA   LAKESH 1400   42                 1032.8
$$

TC  - TEMPERATURE IN CELSIUS
VSB - VISIBILITY IN STATUTE MILES
WCI - WIND CHILL INDEX
HX  - HEAT INDEX





USA.gov is the U.S. government's official web portal to all federal, state and local government web resources and services.